timestamp,wind_dir_avg,wind_spd_max_dir,wind_spd_avg,wind_spd_gust,battery_voltage,lat,long
2019-02-04 00:00:00+00:00,325.0,327.0,11.63,14.18,,47.59359,-54.27349
2019-02-04 00:10:00+00:00,324.0,328.0,9.69,11.92,,47.59359,-54.27349
2019-02-04 00:20:00+00:00,327.0,323.0,9.81,12.94,,47.59359,-54.27349
2019-02-04 00:30:00+00:00,326.0,326.0,11.22,13.94,,47.59359,-54.27349
2019-02-04 00:40:00+00:00,330.0,338.0,9.22,12.17,,47.59359,-54.27349
2019-02-04 00:50:00+00:00,335.0,336.0,7.78,11.52,,47.59359,-54.27349
2019-02-04 01:00:00+00:00,323.0,325.0,7.99,9.2,,47.59359,-54.27349
2019-02-04 01:10:00+00:00,335.0,335.0,10.04,11.95,,47.59359,-54.27349
2019-02-04 01:20:00+00:00,339.0,326.0,9.07,11.87,,47.59359,-54.27349
2019-02-04 01:30:00+00:00,337.0,333.0,7.23,9.44,,47.59359,-54.27349
2019-02-04 01:40:00+00:00,324.0,327.0,10.0,12.77,,47.59359,-54.27349
2019-02-04 01:50:00+00:00,341.0,342.0,7.16,9.28,,47.59359,-54.27349
2019-02-04 02:00:00+00:00,336.0,330.0,8.36,11.22,,47.59359,-54.27349
2019-02-04 02:10:00+00:00,319.0,324.0,7.17,9.5,,47.59359,-54.27349
2019-02-04 02:20:00+00:00,321.0,317.0,7.1,9.21,,47.59359,-54.27349
2019-02-04 02:30:00+00:00,327.0,336.0,6.11,8.11,,47.59359,-54.27349
2019-02-04 02:40:00+00:00,330.0,318.0,6.2,7.96,,47.59359,-54.27349
2019-02-04 02:50:00+00:00,320.0,313.0,7.24,8.75,,47.59359,-54.27349
2019-02-04 03:00:00+00:00,320.0,316.0,7.25,10.34,,47.59359,-54.27349
2019-02-04 03:10:00+00:00,322.0,321.0,8.57,10.67,,47.59359,-54.27349
2019-02-04 03:20:00+00:00,329.0,336.0,7.8,9.27,,47.59359,-54.27349
2019-02-04 03:30:00+00:00,330.0,339.0,8.73,11.2,,47.59359,-54.27349
2019-02-04 03:40:00+00:00,314.0,316.0,7.71,9.16,,47.59359,-54.27349
2019-02-04 03:50:00+00:00,320.0,315.0,8.23,10.05,,47.59359,-54.27349
2019-02-04 04:00:00+00:00,322.0,322.0,7.53,9.01,,47.59359,-54.27349
2019-02-04 04:10:00+00:00,314.0,312.0,8.3,9.59,,47.59359,-54.27349
2019-02-04 04:20:00+00:00,320.0,318.0,7.3,9.93,,47.59359,-54.27349
2019-02-04 04:30:00+00:00,315.0,320.0,8.72,9.83,,47.59359,-54.27349
2019-02-04 04:40:00+00:00,316.0,314.0,8.58,9.92,,47.59359,-54.27349
2019-02-04 04:50:00+00:00,318.0,316.0,7.6,9.06,,47.59359,-54.27349
2019-02-04 05:00:00+00:00,317.0,320.0,8.04,9.65,,47.59359,-54.27349
2019-02-04 05:10:00+00:00,317.0,320.0,7.67,9.42,,47.59359,-54.27349
2019-02-04 05:20:00+00:00,314.0,323.0,7.71,9.22,,47.59359,-54.27349
2019-02-04 05:30:00+00:00,321.0,327.0,7.55,10.49,,47.59359,-54.27349
2019-02-04 05:40:00+00:00,322.0,344.0,5.43,7.75,,47.59359,-54.27349
2019-02-04 05:50:00+00:00,319.0,321.0,5.46,6.95,,47.59359,-54.27349
2019-02-04 06:00:00+00:00,319.0,326.0,6.83,8.7,,47.59359,-54.27349
2019-02-04 06:10:00+00:00,316.0,309.0,6.67,8.49,,47.59359,-54.27349
2019-02-04 06:20:00+00:00,310.0,305.0,6.34,8.65,,47.59359,-54.27349
2019-02-04 06:30:00+00:00,311.0,307.0,6.22,8.11,,47.59359,-54.27349
2019-02-04 06:40:00+00:00,318.0,325.0,6.83,8.87,,47.59359,-54.27349
2019-02-04 06:50:00+00:00,308.0,303.0,4.91,6.92,,47.59359,-54.27349
2019-02-04 07:00:00+00:00,303.0,303.0,4.61,6.67,,47.59359,-54.27349
2019-02-04 07:10:00+00:00,287.0,293.0,3.5,5.53,,47.59359,-54.27349
2019-02-04 07:20:00+00:00,309.0,306.0,5.1,6.47,,47.59359,-54.27349
2019-02-04 07:30:00+00:00,315.0,319.0,5.88,7.61,,47.59359,-54.27349
2019-02-04 07:40:00+00:00,300.0,298.0,5.77,6.92,,47.59359,-54.27349
2019-02-04 07:50:00+00:00,295.0,298.0,5.12,6.4,,47.59359,-54.27349
2019-02-04 08:00:00+00:00,311.0,311.0,3.74,5.19,,47.59359,-54.27349
2019-02-04 08:10:00+00:00,246.0,255.0,2.73,4.14,,47.59359,-54.27349
2019-02-04 08:20:00+00:00,305.0,298.0,4.23,6.12,,47.59359,-54.27349
2019-02-04 08:30:00+00:00,299.0,298.0,4.72,6.1,,47.59359,-54.27349
2019-02-04 08:40:00+00:00,320.0,327.0,4.08,4.75,,47.59359,-54.27349
2019-02-04 08:50:00+00:00,293.0,320.0,3.99,5.39,,47.59359,-54.27349
2019-02-04 09:00:00+00:00,303.0,295.0,3.78,5.08,,47.59359,-54.27349
2019-02-04 09:10:00+00:00,292.0,315.0,4.31,5.55,,47.59359,-54.27349
2019-02-04 09:20:00+00:00,312.0,289.0,2.16,4.35,,47.59359,-54.27349
2019-02-04 09:30:00+00:00,305.0,315.0,3.14,5.4,,47.59359,-54.27349
2019-02-04 09:40:00+00:00,325.0,322.0,6.55,8.19,,47.59359,-54.27349
2019-02-04 09:50:00+00:00,318.0,318.0,8.64,10.62,,47.59359,-54.27349
2019-02-04 10:00:00+00:00,331.0,337.0,7.4,9.96,,47.59359,-54.27349
2019-02-04 10:10:00+00:00,327.0,318.0,5.05,6.42,,47.59359,-54.27349
2019-02-04 10:20:00+00:00,328.0,324.0,4.95,6.52,,47.59359,-54.27349
2019-02-04 10:30:00+00:00,330.0,332.0,5.63,7.42,,47.59359,-54.27349
2019-02-04 10:40:00+00:00,327.0,328.0,5.64,6.85,,47.59359,-54.27349
2019-02-04 10:50:00+00:00,317.0,339.0,4.7,6.23,,47.59359,-54.27349
2019-02-04 11:00:00+00:00,325.0,327.0,4.87,6.19,,47.59359,-54.27349
2019-02-04 11:10:00+00:00,326.0,330.0,5.62,6.77,,47.59359,-54.27349
2019-02-04 11:20:00+00:00,321.0,316.0,4.97,6.77,,47.59359,-54.27349
2019-02-04 11:30:00+00:00,316.0,313.0,5.52,7.25,,47.59359,-54.27349
2019-02-04 11:40:00+00:00,251.0,256.0,5.3,6.55,,47.59359,-54.27349
2019-02-04 11:50:00+00:00,234.0,240.0,3.63,4.95,,47.59359,-54.27349
2019-02-04 12:00:00+00:00,244.0,248.0,2.67,3.73,,47.59359,-54.27349
2019-02-04 12:10:00+00:00,221.0,223.0,2.06,4.04,,47.59359,-54.27349
2019-02-04 12:20:00+00:00,263.0,273.0,3.41,4.87,,47.59359,-54.27349
2019-02-04 12:30:00+00:00,282.0,283.0,2.92,3.37,,47.59359,-54.27349
2019-02-04 12:40:00+00:00,197.0,218.0,3.11,4.49,,47.59359,-54.27349
2019-02-04 12:50:00+00:00,216.0,218.0,3.37,3.92,,47.59359,-54.27349
2019-02-04 13:00:00+00:00,250.0,236.0,3.12,4.04,,47.59359,-54.27349
2019-02-04 13:10:00+00:00,230.0,232.0,4.99,6.16,,47.59359,-54.27349
2019-02-04 13:20:00+00:00,233.0,230.0,4.81,5.53,,47.59359,-54.27349
2019-02-04 13:30:00+00:00,251.0,247.0,6.27,6.82,,47.59359,-54.27349
2019-02-04 13:40:00+00:00,271.0,271.0,5.57,6.24,,47.59359,-54.27349
2019-02-04 13:50:00+00:00,260.0,263.0,6.54,7.33,,47.59359,-54.27349
2019-02-04 14:00:00+00:00,262.0,257.0,6.58,7.25,,47.59359,-54.27349
2019-02-04 14:10:00+00:00,253.0,248.0,6.17,6.81,,47.59359,-54.27349
2019-02-04 14:20:00+00:00,237.0,240.0,6.05,6.61,,47.59359,-54.27349
2019-02-04 14:30:00+00:00,249.0,252.0,7.01,9.53,,47.59359,-54.27349
2019-02-04 14:40:00+00:00,257.0,255.0,7.83,9.25,,47.59359,-54.27349
2019-02-04 14:50:00+00:00,250.0,249.0,6.39,8.19,,47.59359,-54.27349
2019-02-04 15:00:00+00:00,255.0,256.0,6.59,7.46,,47.59359,-54.27349
2019-02-04 15:10:00+00:00,258.0,254.0,6.45,7.38,,47.59359,-54.27349
2019-02-04 15:20:00+00:00,232.0,233.0,7.35,8.8,,47.59359,-54.27349
2019-02-04 15:30:00+00:00,242.0,242.0,7.58,9.79,,47.59359,-54.27349
2019-02-04 15:40:00+00:00,254.0,249.0,9.6,10.94,,47.59359,-54.27349
2019-02-04 15:50:00+00:00,258.0,259.0,8.34,9.5,,47.59359,-54.27349
2019-02-04 16:00:00+00:00,258.0,258.0,9.76,11.41,,47.59359,-54.27349
2019-02-04 16:10:00+00:00,254.0,255.0,9.28,11.2,,47.59359,-54.27349
2019-02-04 16:20:00+00:00,249.0,252.0,9.16,11.35,,47.59359,-54.27349
2019-02-04 16:30:00+00:00,261.0,260.0,10.05,11.45,,47.59359,-54.27349
2019-02-04 16:40:00+00:00,249.0,248.0,10.07,12.09,,47.59359,-54.27349
2019-02-04 16:50:00+00:00,244.0,246.0,8.59,9.95,,47.59359,-54.27349
2019-02-04 17:00:00+00:00,248.0,248.0,10.22,12.3,,47.59359,-54.27349
2019-02-04 17:10:00+00:00,250.0,246.0,10.08,12.72,,47.59359,-54.27349
2019-02-04 17:20:00+00:00,245.0,245.0,9.61,10.68,,47.59359,-54.27349
2019-02-04 17:30:00+00:00,242.0,238.0,9.9,12.88,,47.59359,-54.27349
2019-02-04 17:40:00+00:00,245.0,244.0,10.05,11.99,,47.59359,-54.27349
2019-02-04 17:50:00+00:00,248.0,256.0,12.78,15.08,,47.59359,-54.27349
2019-02-04 18:00:00+00:00,243.0,244.0,11.31,13.12,,47.59359,-54.27349
2019-02-04 18:10:00+00:00,253.0,259.0,11.71,13.67,,47.59359,-54.27349
2019-02-04 18:20:00+00:00,261.0,266.0,11.9,13.57,,47.59359,-54.27349
2019-02-04 18:30:00+00:00,250.0,249.0,11.29,13.52,,47.59359,-54.27349
2019-02-04 18:40:00+00:00,258.0,261.0,11.1,12.64,,47.59359,-54.27349
2019-02-04 18:50:00+00:00,255.0,252.0,12.13,13.32,,47.59359,-54.27349
2019-02-04 19:00:00+00:00,247.0,248.0,10.01,13.06,,47.59359,-54.27349
2019-02-04 19:10:00+00:00,250.0,251.0,11.46,12.88,,47.59359,-54.27349
2019-02-04 19:20:00+00:00,245.0,250.0,10.75,12.27,,47.59359,-54.27349
2019-02-04 19:30:00+00:00,237.0,232.0,9.19,11.91,,47.59359,-54.27349
2019-02-04 19:40:00+00:00,247.0,249.0,10.18,11.99,,47.59359,-54.27349
2019-02-04 19:50:00+00:00,243.0,243.0,9.14,10.63,,47.59359,-54.27349
2019-02-04 20:00:00+00:00,239.0,236.0,9.84,12.45,,47.59359,-54.27349
2019-02-04 20:10:00+00:00,237.0,238.0,12.39,15.24,,47.59359,-54.27349
2019-02-04 20:20:00+00:00,235.0,240.0,11.35,14.62,,47.59359,-54.27349
2019-02-04 20:30:00+00:00,242.0,237.0,8.52,10.15,,47.59359,-54.27349
2019-02-04 20:40:00+00:00,240.0,240.0,11.33,14.44,,47.59359,-54.27349
2019-02-04 20:50:00+00:00,242.0,250.0,11.52,13.57,,47.59359,-54.27349
2019-02-04 21:00:00+00:00,245.0,247.0,11.34,13.75,,47.59359,-54.27349
2019-02-04 21:10:00+00:00,245.0,247.0,9.18,11.36,,47.59359,-54.27349
2019-02-04 21:20:00+00:00,245.0,249.0,9.7,11.54,,47.59359,-54.27349
2019-02-04 21:30:00+00:00,242.0,236.0,9.65,12.39,,47.59359,-54.27349
2019-02-04 21:40:00+00:00,242.0,244.0,9.32,11.33,,47.59359,-54.27349
2019-02-04 21:50:00+00:00,243.0,249.0,7.96,10.38,,47.59359,-54.27349
2019-02-04 22:00:00+00:00,235.0,236.0,9.67,12.57,,47.59359,-54.27349
2019-02-04 22:10:00+00:00,234.0,235.0,10.41,11.82,,47.59359,-54.27349
2019-02-04 22:20:00+00:00,247.0,252.0,9.48,10.95,,47.59359,-54.27349
2019-02-04 22:30:00+00:00,244.0,233.0,7.21,8.78,,47.59359,-54.27349
2019-02-04 22:40:00+00:00,240.0,235.0,8.12,9.5,,47.59359,-54.27349
2019-02-04 22:50:00+00:00,236.0,236.0,10.94,13.01,,47.59359,-54.27349
2019-02-04 23:00:00+00:00,230.0,236.0,11.28,12.87,,47.59359,-54.27349
2019-02-04 23:10:00+00:00,228.0,231.0,10.65,11.8,,47.59359,-54.27349
2019-02-04 23:20:00+00:00,220.0,217.0,11.51,13.9,,47.59359,-54.27349
2019-02-04 23:30:00+00:00,225.0,220.0,11.3,13.71,,47.59359,-54.27349
2019-02-04 23:40:00+00:00,223.0,218.0,10.58,12.53,,47.59359,-54.27349
2019-02-04 23:50:00+00:00,228.0,230.0,10.86,12.52,,47.59359,-54.27349
